AirNav   Get a free Bose Revolve speaker with A20 purchase
 
 431 users online  

4M7 Russellville-Logan County Airport
Russellville, Kentucky, USA

GOING TO RUSSELLVILLE?


FAA INFORMATION EFFECTIVE 19 JULY 2018

Location

FAA Identifier: 4M7
Lat/Long: 36-47-58.6000N / 086-48-39.3000W
36-47.976667N / 086-48.655000W
36.7996111 / -86.8109167
(estimated)
Elevation: 691.7 ft. / 210.8 m (surveyed)
Variation: 04W (2020)
From city: 4 miles SE of RUSSELLVILLE, KY
Time zone: UTC -5 (UTC -6 during Standard Time)
Zip code: 42276

Airport Operations

Airport use: Open to the public
Activation date: 02/1966
Control tower: no
ARTCC: MEMPHIS CENTER
FSS: LOUISVILLE FLIGHT SERVICE STATION
NOTAMs facility: LOU (NOTAM-D service available)
Attendance: 0900-1800
Wind indicator: lighted
Segmented circle: yes
Lights: ACTVT REIL RYS 07 & 25; PAPI RYS 07 & 25; MIRL RY 07/25 - CTAF.
Beacon: white-green (lighted land airport)
Operates sunset to sunrise.

Airport Communications

CTAF/UNICOM: 122.7
WX AWOS-3 at M91 (17 nm S): 120.675 (615-384-8206)
  • APCH/DEP SERVICE PROVIDED BY MEMPHIS ARTCC ON FREQS 133.85/317.6 (NASHVILLE RCAG).

Nearby radio navigation aids

VOR radial/distance  VOR name  Freq  Var
BWGr244/19.3BOWLING GREEN VORTAC117.9002E
CKVr071/30.8CLARKSVILLE VOR/DME110.6001W

Airport Services

Fuel available: 100LL JET-A+
Parking: tiedowns
Airframe service: NONE
Powerplant service: NONE
Bottled oxygen: NONE
Bulk oxygen: NONE

Runway Information

Runway 7/25

Dimensions: 4500 x 75 ft. / 1372 x 23 m
Surface: asphalt, in good condition
Weight bearing capacity: 
Single wheel: 12.5
Runway edge lights: medium intensity
RUNWAY 7  RUNWAY 25
Latitude: 36-47.810572N36-48.141762N
Longitude: 086-49.067543W086-48.242477W
Elevation: 691.7 ft.655.1 ft.
Gradient: 0.9% DOWN0.9% UP
Traffic pattern: leftleft
Runway heading: 067 magnetic, 063 true247 magnetic, 243 true
Markings: nonprecision, in good conditionnonprecision, in good condition
Visual slope indicator: 2-light PAPI on left (3.00 degrees glide path)2-light PAPI on left (3.00 degrees glide path)
Runway end identifier lights: yesyes
Touchdown point: yes, no lightsyes, no lights
Obstructions: none30 ft. trees, 1241 ft. from runway, 235 ft. right of centerline, 34:1 slope to clear

Airport Ownership and Management from official FAA records

Ownership: Publicly-owned
Owner: CITY COUNTY ARPT BOARD
385 AIRPORT RD.
RUSSELLVILLE, KY 42276
Phone (270) 847-7622
AIRPORT BOARD CHAIRMAN STEVE DILLIHA
Manager: CAROL SOBEY
385 AIRPORT RD.
RUSSELLVILLE, KY 42276
Phone 270-726-3214

Airport Operational Statistics

Aircraft based on the field: 20
Single engine airplanes: 18
Multi engine airplanes: 2
    
Aircraft operations: avg 51/day *
46% local general aviation
27% transient general aviation
24% military
3% air taxi
* for 12-month period ending 22 November 2016

Additional Remarks

DEER ON & INVOF ARPT.
WILDLIFE NEAR ARPT.

Instrument Procedures

NOTE: All procedures below are presented as PDF files. If you need a reader for these files, you should download the free Adobe Reader.

NOT FOR NAVIGATION. Please procure official charts for flight.
FAA instrument procedures published for use from 19 July 2018 at 0901Z to 16 August 2018 at 0900Z.

 
IAPs - Instrument Approach Procedures
RNAV (GPS) RWY 07   download (159KB)
RNAV (GPS) RWY 25   download (188KB)
NOTE: Special Take-Off Minimums/Departure Procedures apply   download (235KB)

Other nearby airports with instrument procedures:

M91 - Springfield Robertson County Airport (17 nm S)
1M5 - Portland Municipal Airport (20 nm SE)
KBWG - Bowling Green-Warren County Regional Airport (21 nm NE)
M21 - Muhlenberg County Airport (30 nm NW)
KCKV - Outlaw Field Airport (31 nm W)
 
Loc | Ops | Rwys | IFR | FBO | Links
Com | Nav | Svcs | Stats | Notes


 
Area around 4M7 (Russellville-Logan County Airport)
 
Road maps at: MapQuest Bing Google
 
Aerial photo
WARNING: Photo may not be current or correct
Aerial photo of 4M7 (Russellville-Logan County Airport)
Photo by Vickie Jost
Photo taken 05-Aug-2013
looking northeast.

Do you have a better or more recent aerial photo of Russellville-Logan County Airport that you would like to share? If so, please send us your photo.

 
Sectional chart

 
Airport distance calculator
Flying to Russellville-Logan County Airport? Find the distance to fly.

From to 4M7

Sunrise and sunset
Times for 23-Jul-2018
 Local
(UTC-5)
 Zulu
(UTC)
Morning civil twilight05:1710:17
Sunrise05:4710:47
Sunset20:0101:01
Evening civil twilight20:3001:30

Current date and time
Zulu (UTC)  23-Jul-2018 06:18:53
Local (UTC-5)  23-Jul-2018 01:18:53
 
METAR
KM91 
17nm S 
230555Z AUTO 34004KT 8SM OVC010 20/20 A2981 RMK A01
K1M5 
20nm SE 
230555Z AUTO 02004G10KT 10SM OVC005 21/20 A2981 RMK A01
KBWG 
21nm NE 
230553Z AUTO 33003KT 10SM OVC010 22/21 A2981 RMK AO2 SLP088 T02170206 10239 20217 402610217 58005
KM21 
30nm NW 
230555Z AUTO 33006KT 10SM OVC008 20/20 A2981 RMK AO2 T02000200 10230 20197 402560195
KCKV 
31nm W 
230552Z AUTO 33007KT 9SM OVC012 21/19 A2982 RMK AO2 SLP094 6//// T02110189 10244 20206 402610200 58004 PNO $
KXNX 
32nm SE 
230555Z AUTO 00000KT 10SM OVC013 21/20 A2983 RMK A01
TAF
KBWG 
21nm NE 
230528Z 2306/2406 VRB04KT P6SM OVC006 FM231100 VRB04KT 4SM BR OVC004 FM231200 34005KT P6SM OVC008 FM231400 01006KT P6SM BKN025 FM231600 35007KT P6SM SCT040
NOTAMs
Click for the latest NOTAMs
NOTAMs are issued by the DoD/FAA and will open in a separate window not controlled by AirNav.

 

 
 

FBO, Fuel Providers, and Aircraft Ground Support

  
 Business Name 
 
 Contact 
 
 Services / Description 
 
Fuel Prices
 
Comments
  
Russellville-Logan County Airport 270-726-3214
270-847-5998
[web site]
[email]
Airport management, Aviation fuel, Aircraft parking (ramp or tiedown), Hangars, Hangar leasing / sales, Passenger terminal and lounge, ...

More info about Russellville-Logan County Airport
Shell
100LL Jet A
AS $4.38 $3.75 
 Updated 02-Jul-2018
 
   4 read write
AS=Assisted/Self Service
Update Fuel Prices
 

Would you like to see your business listed on this page?

 If your business provides an interesting product or service to pilots, flight crews, aircraft, or users of the Russellville-Logan County Airport, you should consider listing it here.  To start the listing process, click on the button below
 
Add a business
 

Other Pages about Russellville-Logan County Airport

Update a link
 
Copyright © AirNav, LLC. All rights reserved. Privacy Policy  Contact